TimeEST,TemperatureF,Dew PointF,Humidity,Sea Level PressureIn,VisibilityMPH,Wind Direction,Wind SpeedMPH,Gust SpeedMPH,PrecipitationIn,Events,Conditions,WindDirDegrees,DateUTC
12:57 AM,48.9,44.1,83,30.06,10.0,NE,11.5,-,N/A,,Overcast,40,2012-12-26 05:57:00
1:57 AM,50.0,45.0,83,30.05,10.0,NE,9.2,-,N/A,,Overcast,50,2012-12-26 06:57:00
2:57 AM,51.1,45.0,80,30.03,10.0,NE,10.4,-,N/A,,Overcast,50,2012-12-26 07:57:00
3:57 AM,52.0,46.0,80,30.00,10.0,NE,10.4,-,0.00,,Overcast,50,2012-12-26 08:57:00
4:57 AM,51.1,46.9,86,29.96,10.0,NE,10.4,-,0.01,Rain,Light Rain,50,2012-12-26 09:57:00
5:57 AM,51.1,48.0,89,29.92,10.0,NE,13.8,-,0.00,,Overcast,50,2012-12-26 10:57:00
6:57 AM,52.0,50.0,93,29.88,4.0,NE,11.5,19.6,0.11,Rain,Rain,50,2012-12-26 11:57:00
7:30 AM,53.6,51.8,94,29.86,5.0,NE,11.5,21.9,0.09,Rain,Rain,50,2012-12-26 12:30:00
7:43 AM,53.6,51.8,94,29.86,4.0,ENE,8.1,-,0.13,Rain,Rain,60,2012-12-26 12:43:00
7:57 AM,53.1,52.0,96,29.88,4.0,NE,4.6,-,0.16,Rain,Rain,40,2012-12-26 12:57:00
8:28 AM,53.6,51.8,94,29.83,7.0,ENE,9.2,-,0.01,,Overcast,60,2012-12-26 13:28:00
8:57 AM,57.0,55.9,96,29.83,7.0,East,11.5,19.6,0.07,Rain,Light Rain,100,2012-12-26 13:57:00
9:57 AM,62.1,61.0,96,29.80,6.0,SSE,10.4,-,0.02,Rain,Light Rain,160,2012-12-26 14:57:00
10:57 AM,64.0,60.1,87,29.75,5.0,South,17.3,25.3,0.03,Rain,Light Rain,180,2012-12-26 15:57:00
11:38 AM,64.4,59.0,83,29.67,5.0,South,13.8,20.7,0.03,Rain-Thunderstorm,Light Thunderstorms and Rain,170,2012-12-26 16:38:00
11:57 AM,64.9,59.0,81,29.67,8.0,South,20.7,29.9,0.03,Thunderstorm,Thunderstorm,170,2012-12-26 16:57:00
12:11 PM,64.4,59.0,83,29.64,7.0,South,23.0,32.2,N/A,,Overcast,170,2012-12-26 17:11:00
12:32 PM,64.4,59.0,83,29.61,6.0,South,20.7,29.9,0.01,Rain-Thunderstorm,Light Thunderstorms and Rain,170,2012-12-26 17:32:00
12:57 PM,64.9,60.1,84,29.59,5.0,South,16.1,27.6,0.02,Rain-Thunderstorm,Light Thunderstorms and Rain,170,2012-12-26 17:57:00
1:52 PM,62.6,60.8,94,29.58,2.5,South,15.0,-,0.11,Rain-Thunderstorm,Thunderstorms and Rain,190,2012-12-26 18:52:00
1:57 PM,62.1,60.1,93,29.58,3.0,South,16.1,21.9,0.12,Rain-Thunderstorm,Thunderstorms and Rain,190,2012-12-26 18:57:00
2:02 PM,62.6,60.8,94,29.57,3.0,SSW,15.0,21.9,0.01,Rain-Thunderstorm,Thunderstorms and Rain,200,2012-12-26 19:02:00
2:20 PM,64.4,62.6,94,29.54,0.8,SSW,11.5,25.3,0.29,Rain-Thunderstorm,Heavy Thunderstorms and Rain,200,2012-12-26 19:20:00
2:29 PM,64.4,62.6,94,29.53,2.0,South,24.2,35.7,0.33,Rain-Thunderstorm,Light Thunderstorms and Rain,190,2012-12-26 19:29:00
2:37 PM,64.4,62.6,94,29.53,6.0,South,16.1,35.7,0.33,Rain-Thunderstorm,Light Thunderstorms and Rain,170,2012-12-26 19:37:00
2:57 PM,63.0,60.1,90,29.54,4.0,SSW,19.6,28.8,0.34,Rain-Thunderstorm,Light Thunderstorms and Rain,210,2012-12-26 19:57:00
3:08 PM,64.4,60.8,88,29.51,4.0,SSW,23.0,41.4,0.00,Thunderstorm,Mostly Cloudy,200,2012-12-26 20:08:00
3:12 PM,64.4,60.8,88,29.50,4.0,SSW,21.9,34.5,0.00,,Mostly Cloudy,200,2012-12-26 20:12:00
3:57 PM,63.0,60.1,90,29.51,5.0,SSW,18.4,28.8,0.00,,Scattered Clouds,200,2012-12-26 20:57:00
4:41 PM,62.6,57.2,82,29.51,6.0,SSW,15.0,-,N/A,,Mostly Cloudy,200,2012-12-26 21:41:00
4:57 PM,62.1,57.9,86,29.51,6.0,SSW,16.1,23.0,N/A,,Mostly Cloudy,210,2012-12-26 21:57:00
5:12 PM,62.6,57.2,82,29.49,6.0,SSW,15.0,26.5,N/A,,Scattered Clouds,210,2012-12-26 22:12:00
5:57 PM,60.1,55.0,83,29.49,9.0,SW,17.3,28.8,N/A,,Clear,230,2012-12-26 22:57:00
6:57 PM,59.0,53.1,81,29.51,9.0,SW,18.4,29.9,N/A,,Clear,230,2012-12-26 23:57:00
7:57 PM,57.0,53.1,87,29.52,8.0,WSW,11.5,-,N/A,,Clear,240,2012-12-27 00:57:00
8:57 PM,55.9,51.1,84,29.54,6.0,WSW,5.8,-,N/A,,Haze,250,2012-12-27 01:57:00
9:57 PM,55.9,45.0,67,29.57,10.0,West,9.2,17.3,N/A,,Clear,270,2012-12-27 02:57:00
10:57 PM,53.1,41.0,64,29.61,10.0,West,12.7,21.9,N/A,,Partly Cloudy,270,2012-12-27 03:57:00
11:57 PM,48.9,37.0,64,29.64,10.0,West,10.4,25.3,N/A,,Scattered Clouds,280,2012-12-27 04:57:00